Powrót do katalogu

CZ-6A DEB

AktywnyPO
NORAD 61360·DEBRIS·🇨🇳 China

Wystrzelony Aug 6, 2024 z Taiyuan Satellite Launch Center

Loading…

Następne Przeloty (najbliższe 24 godziny)

TLE

ŚwieżeSource: Space-Track

Epoka: Sep 14, 2026, 00:22 UTC

1 61360U 24140VZ  26257.01543973  .00000611  00000-0  27917-3 0  9998
2 61360  89.0102 266.1124 0047240 262.3087  97.2737 14.19803125105011

Śledź CZ-6A DEB w czasie rzeczywistym z AllMySat

Download on the App Store